STARLINK-3690, 51964

Orbit data source: Space-Track

STARLINK-3690, 51964 is a payload satellite owned by SpaceX/Seattle (US) in LEO that was launched on Wed, 09 Mar 2022 UTC via an FALCON 9 launch vehicle from the Air Force Eastern Test Range (AFETR). Payload-class satellites include a variety of spacecraft equipped with specific instruments for various scientific and technological missions. These include communications satellites like Starlink; space stations such as the ISS; scientific satellites like the Hubble; Earth observation satellites from companies like Planet Labs, Umbra, and HawkEye 360; GPS; miniature CubeSats for education and research; and military/defense satellites.

Loading next visibility...
Identifier
51964, 2022-025J
Orbit
LEO
Country
Flag of USUS
Related business
Manufacturer
SpaceX/Seattle
Mission
Operational Commercial Communications
Bus & Motor
STARLINK, Unknown motor
Mass
297 kg wet, ~275 kg dry
Launch date (UTC)
2022-03-09 (4 years ago)
Launch vehicle
FALCON 9
Launch site
Air Force Eastern Test Range (AFETR)
Object type
Payload
Rocket body
Debris
Shape & HBR
Box + 1 Pan, 10.1 m
Radar Cross Section
13.562 m², Large (>1 m²)

Expand to show TLE details & history
Last TLE update: 13 hours ago

TLE from 13 hours ago
0 STARLINK-3690
1 51964U 22025J   25346.89743615  .00000473  00000-0  50615-4 0  9994
2 51964  53.0553  56.6409 0001200 100.5902 259.5222 15.06401913207891
Epoch: 2025-12-12T21:32Z
TLE epoch observation values (Epoch: 2025-12-12T21:32:18.483Z)
Latitude
-0.00003°
Longitude
11.7314°
Altitude
548.236 km
Speed
7.589 km/s
True Right ascension
03h 46m 33s
True Declination
0° 00' 00"
Sunlit
Object was in full shadow at epoch
Visualization orbit readout
Latitude
Unknown
Longitude
Unknown
Altitude
Unknown
Speed
Unknown
Apparent Right ascension
Unknown
Apparent Declination
Unknown
Sunlit
N/A
Visualization observer readout
Local Sidereal Time
09:14:37
Azimuth
Unknown
Elevation
Unknown
Doppler factor
Unknown
Orbital elements
Apogee altitude
548.307 km
Perigee altitude
546.645 km
Semi-major axis
6,925.613 km
Eccentricity
0.00012
Inclination
53.0553°
RAAN
56.6409°
Arg. of periapsis
100.5902°
True anomaly
259.50868°
Mean anomaly
259.5222°
Eccentric anomaly
259.51544°
Mean motion
3.76579 °/min
Orbital period
95.6 mins
BSTAR
0.000050615
Loading maneuver chart data...
Computing Atmospheric mass density...
Loading historical data...
Loading historical data...
Loading historical data...
Loading historical data...
Loading historical data...
Loading historical data...
Loading historical data...

Documentation

Showing up to 5 results
|